Zurück zum Katalog

STARLINK-34632

AktivKommunikationVLEO
NORAD 64792·PAYLOAD·🇺🇸 United States

Gestartet Jul 16, 2025 von Vandenberg Space Force Base

Loading…

Nächste Überflüge (nächste 24 Stunden)

TLE

AktuellSource: CelesTrak SupGP

Epoche: Sep 14, 2026, 20:40 UTC

1 64792C 25150C   26257.86159722 -.00010751  00000+0 -90089-3 0  2574
2 64792  70.0027  17.4283 0003094 269.6287   9.3225 14.98338012    18

Verfolge STARLINK-34632 in Echtzeit mit AllMySat

Download on the App Store